sat.trackr.live / text

‹ back to catalog

UNKNOWN

NORAD 83903

UNKNOWN UNKNOWN UNKNOWN

§ Identity

Operator
Country
Launch date
Launch site
Launch vehicle
Mass (kg)
RCS (m²)

External: N2YO · Heavens-Above

§ Orbital elements

Epoch: 2026-05-23T18:13:48.234720Z

Period
1,452.82 min
Inclination
5.7859°
Eccentricity
0.0122435
Mean motion
0.99117679 rev/d
Perigee alt
35,593.0 km
Apogee alt
36,633.5 km
Semi-major
42,491.4 km
B*
0.0000e+0
RAAN
289.2519°
Arg perigee
255.4812°
Mean anomaly
117.9027°
Rev number
4,527

§ Raw data

UNKNOWN1 83903U          26143.75958605 -.00000377  00000+0  00000+0 0  99902 83903   5.7859 289.2519 0122435 255.4812 117.9027  0.99117679 45273

JSON: /api/v1/satellites/83903 · /tle

For live sub-satellite position, see the globe view (requires WebGL).

§ Visibility from observer

Set your observer location to see the next 7 days of passes ≥ 10°. The values pass through the URL so the page stays shareable.

No JS? Fill the form by hand. The geolocation button needs JavaScript.